Regional Weather Roundup
Issued by NWS

Home | Current Version | Previous Version | Text Only | Print | Product List | Glossary On
Versions: 1 2 3 4 5 6 7 8 9 10 11 12 13 14 15 16 17 18 19 20 21 22 23 24 25 26 27 28 29 30 31 32 33 34 35 36 37 38 39 40 41 42 43 44 45 46 47 48 49 50
000
ASUS43 KDMX 062307
RWRIA

WEATHER ROUNDUP FOR IOWA
NATIONAL WEATHER SERVICE DES MOINES IA
600 PM CDT WED MAY 06 2015

NOTE: "FAIR" INDICATES FEW OR NO CLOUDS BELOW 12,000 FEET WITH NO
SIGNIFICANT WEATHER AND/OR OBSTRUCTIONS TO VISIBILITY.

* - THESE STATIONS ARE NOT NWS STATIONS...THUS NOT UNDER NWS
QUALITY CONTROL.  THEY ALSO DO NOT REPORT WEATHER SUCH
AS PRECIPITATION OR FOG.

IAZ001>003-012>014-020>022-031>034-043>046-070000-
   NORTHWEST IOWA

CITY           SKY/WX    TMP DP  RH WIND       PRES   REMARKS
CARROLL *      SUNNY     73  57  56 S21G33    29.81F
CHEROKEE *     CLOUDY    68  63  83 S13       29.79S
DENISON *      CLOUDY    70  61  73 S17G26    29.79S
LE MARS *      CLOUDY    68  63  83 SE17      29.76F
ORANGE CITY *  PTSUNNY   66  61  82 S13G20    29.77F
SHELDON *      CLOUDY    66 N/A N/A SE17G24   29.77F
SIOUX CITY     CLOUDY    70  61  73 SE22G28   29.75S
SPENCER        CLOUDY    70  64  81 S15       29.81F
STORM LAKE *   CLOUDY    70  61  73 S20G28    29.81F
$$

IAZ055>058-069>071-079>083-090>094-070000-
   SOUTHWEST IOWA

CITY           SKY/WX    TMP DP  RH WIND       PRES   REMARKS
ATLANTIC *     CLOUDY    72  59  64 S16G26    29.82S
AUDUBON *      PTSUNNY   73  57  56 S20G26    29.84S
CLARINDA *     CLOUDY    72  61  68 SE17G30   29.84F
COUNCIL BLFS * CLOUDY    70  66  88 SE21G29   29.79S
CRESTON *      MOSUNNY   72  61  68 S23G31    29.87F
HARLAN  *      CLOUDY    72  64  78 S20G32    29.84R
LAMONI         PTSUNNY   72  60  66 S16G24    29.89F
RED OAK *      CLOUDY    72  61  68 SE23G31   29.82R
SHENANDOAH *   CLOUDY    72  59  64 S25G32    29.82R
$$

IAZ047>049-059>061-072>074-084-070000-
   CENTRAL IOWA

CITY           SKY/WX    TMP DP  RH WIND       PRES   REMARKS
AMES           CLOUDY    72  56  57 S17G25    29.88F
ANKENY *       SUNNY     75  59  57 S21       29.87F
CHARITON *     MOSUNNY   72  59  64 S15G26    29.92S
DES MOINES     CLOUDY    75  58  55 S21       29.88F
GRINNELL*      CLOUDY    72  57  60 SE18G24   29.93F
KNOXVILLE *    MOSUNNY   73  57  56 S20G26    29.91S
MARSHALLTOWN   CLOUDY    73  56  54 S18G28    29.91S
PELLA *        CLOUDY    73  61  64 S16G25    29.93S
PERRY *          N/A     73  57  56 S18G26    29.85F
$$

IAZ004>006-015-016-023>025-035-036-070000-
   NORTH CENTRAL IOWA

CITY           SKY/WX    TMP DP  RH WIND       PRES   REMARKS
ALGONA *       SUNNY     73  59  60 S21G32    29.83F
CLARION *      SUNNY     73  59  60 S25       29.86S
ESTHERVILLE    CLOUDY    67  63  87 S12       29.82S
FORT DODGE *   PTSUNNY   73  57  56 S15G26    29.85S
MASON CITY     CLOUDY    75  58  55 S24G30    29.89F
FOREST CITY *  SUNNY     73  57  56 S15G26    29.86F
IOWA FALLS *     N/A     72  57  60 S22G30    29.91S
$$

IAZ007>011-017>019-026>030-037>042-050>054-066-070000-
   NORTHEAST IOWA

CITY           SKY/WX    TMP DP  RH WIND       PRES   REMARKS
CEDAR RAPIDS   TSTM      65  63  93 S8        29.98R
CHARLES CITY * MOSUNNY   70  66  88 SE18      29.92F
CLINTON *      PTSUNNY   81  55  41 S14       30.01F HX  80
DECORAH *      PTSUNNY   68  61  77 S17G25    29.96S
DUBUQUE        MOSUNNY   76  55  48 S15       29.98F
MONTICELLO *   PTSUNNY   70  63  78 SW12G21   30.00R
OELWEIN *      CLOUDY    66  63  88 S15G21    29.98S
WATERLOO       CLOUDY    72  64  76 S13       29.93S
$$

IAZ064-065-067-068-078-070000-
   EAST CENTRAL IOWA

CITY           SKY/WX    TMP DP  RH WIND       PRES   REMARKS
DAVENPORT      PTSUNNY   79  52  38 S18G25    30.00R
IOWA CITY      LGT RAIN  65  62  90 SE10      30.01S
MT. PLEASANT * CLOUDY    68  63  83 CALM      29.99F
MUSCATINE *    LGT RAIN  68  63  83 W6        30.00F
QUAD CITIES    PTSUNNY   81  52  36 S12       29.98S HX  80
$$

IAZ062-063-075>077-085>089-095>099-070000-
   SOUTHEAST IOWA

CITY           SKY/WX    TMP DP  RH WIND       PRES   REMARKS
BURLINGTON     CLOUDY    70  64  81 SE3       30.00F
FAIRFIELD *    PTSUNNY   68  64  88 SE8       29.98F
FORT MADISON * PTSUNNY   72  61  68 CALM      30.00F
KEOKUK *       MOSUNNY   72  63  73 SW3       29.98F
OSKALOOSA *      N/A     73  57  56 S20       29.96F
CENTERVILLE *  SUNNY     73  59  60 S14G25    29.96F
OTTUMWA        CLOUDY    73  58  59 S17       29.95F
WASHINGTON *   CLOUDY    66 -40   1 SE8       29.99F
$$

ABBREVIATIONS USED IN REMARKS
   TC - TEMPERATURES IN CELSIUS
  WCI - WIND CHILL INDEX
   HX - HEAT INDEX
  VSB - VISIBILITY
$$



USA.gov is the U.S. government's official web portal to all federal, state and local government web resources and services.